Погода в Тобольске

Хотите узнать прогноз погоды в Тобольске? Тогда Вам сюда: Погода в Тобольске

Поиск расширенной информации на нашем сайте:

Полезная информация:

Новости сайта



02.01.2020
Опубликован Долгосрочный прогноз погоды по городам России и ближнего зарубежья на январь 2020 года.
Карты: Прогноз на январь и февраль 2020 года, Сравнение прогнозируемой аномалии приземной температуры воздуха на январь 2020 года по разным моделям.




Погода в Тобольске - сегодня

Время (UTC), дата Ветер
(°,м/с) 
Видим.   Явления Облачность Т
(°С)
Тd
(°С)
f(%) Тe
(°С)
Pmin
(гПа)
dP
(гПа)
Po
(мм)
O2
(г/м3)
Тmin Tmax R s Состояние
почвы
06 16.01.21 150 (ЮВ) 20000 м    10/0 средняя 
[Ac und]
-10.8 -17 60 -14  1014.5  -1  756  319           
09 16.01.21 140 (ЮВ) 20000 м    10/3 600 м средняя 
[Sc|Ac und]
-9.9 -15.8 62 -13  1012.1  -2.3  754  317           
12 16.01.21 110 (В) 10 км  позёмок  10/0 средняя 
[Ac und]
-10.3 -15.7 65 -14  1008.2  -3.9  751  316           
15 16.01.21 120 (ЮВ) 10 км  позёмок  10/6 600 м верхняя 
[Sc|Ci sp]
-10.8 -15.5 68 -14  1004.2  -4  748  315    -9.7       
18 16.01.21 170 (Ю) 10 км    10/10 600 м 
[Sc]
-8.7 -13.6 68 -10  1001  -3.2  746  312           
21 16.01.21 240 (ЮЗ) 4000 м  слаб. снег  10/0 средняя 
[Ac As]
-8.6 -11.4 80 -11  999.7  -1.2  745  311           
00 17.01.21 240 (ЮЗ) 4000 м  слаб. снег  10/0 средняя 
[Ac As]
-9.2 -12.6 76 -12  1000.7  750  314           
03 17.01.21 230 (ЮЗ) 4000 м  слаб. снег  10/0 средняя 
[Ac As]
-9.4 -11.7 83 -11  1000.8  0.1  746  312  -11.1    0.5  24  равномерный
сухой снег
100% 
06 17.01.21 230 (ЮЗ) 10 км  слаб. снег  10/0 средняя 
[Ac As]
-8.3 -11.2 80 -11  1001.1  0.3  746  311           
09 17.01.21 210 (ЮЗ) 10 км  слаб. снег  10/0 средняя 
[Ac As]
-8.6 -11.5 79 -12  1000.4  -0.7  746  311           
12 17.01.21 210 (ЮЗ) 10 км  слаб. снег  10/0 средняя 
[Ac As]
-8.7 -11.4 81 -10  998.4  -2  744  311           
15 17.01.21 230 (ЮЗ) 4000 м  слаб. снег  10/0 средняя 
[As op]
-9.5 -12.1 81 -12  997.6  -0.6  744  312    -7.9  0.9     
18 17.01.21 240 (ЮЗ) 4000 м  слаб. снег  10/0 средняя 
[As op]
-9.6 -12.2 81 -13  998.3  0.7  744  312           
00 18.01.21 280 (З) 10 км  {снег}  ясно 
-21.5 -24.8 75 -24  1005.6  3.2  749  329           
03 18.01.21 280 (З) 10 км    ясно 
-23.3 -26.5 75 -26  1007.9  2.2  751  333  -23.3    0.4  25  равномерный
сухой снег
100% 
06 18.01.21 230 (ЮЗ) 20000 м    ясно 
-21.4 -25.4 70 -22  1010.3  2.5  753  331           
09 18.01.21 270 (З) 20000 м    ясно 
-18.6 -24.3 61 -23  1012.3  1.8  754  328           
12 18.01.21 230 (ЮЗ) 10 км    ясно 
-20 -24.5 67 -24  1013.4  1.1  755  330           
15 18.01.21 250 (З) 10 км    ясно 
-19.9   1013.7  0.2  755      -18     
18 18.01.21 230 (ЮЗ) 10 км    ясно 
-20.1 -23.4 75 -23  1015.1  1.4  756  331           
21 18.01.21 280 (З) 10 км    ясно 
-22.1 -24.9 78 -25  1016.9  1.7  758  334           
00 19.01.21 270 (З) 10 км    ясно 
-23.2 -26.1 77 -24  1018.7  1.8  759  336           
03 19.01.21 300 (СЗ) 10 км    ясно 
-28.8 -32.1 73 -29  1020.7  1.8  760  344  -29.1      25  равномерный
сухой снег
100% 
06 19.01.21 300 (СЗ) 20000 м    ясно 
-24.5 -27.9 73 -25  1022.2  1.7  762  339  -29.8         
09 19.01.21 250 (З) 20000 м    ясно 
-20.8 -24.9 70 -21  1023.7  1.5  763  334           
Время (UTC), дата Ветер
(°,м/с) 
Видим.   Явления Облачность Т
(°С)
Тd
(°С)
f(%) Тe
(°С)
Pmin
(гПа)
dP
(гПа)
Po
(мм)
O2
(г/м3)
Тmin Tmax R s Состояние
почвы

Для получения пояснительной информации подведите курсор к названию столбца.

ПОГОДА в Тобольске - архив

Всё, что Вы хотите узнать о погоде в Тобольске - удобно и подробно!

Выберите нужную дату (начиная с 1 января 2019* года) и нажмите кнопку "Найти".
Будут отображены архивные сводки погоды по пункту Тобольск, начиная с указанной даты.


Отображать данные в формате CSV (для использования в таблицах Excel)


Внимание! Наш архив погоды предназначен исключительно для личного некоммерческого использования в познавательных целях. Если Вам необходимы официальные справки о состоянии погоды (для производственных, юридических, коммерческих и т.п. целей), обращайтесь в органы Росгидромета.

*Примечание: данная дата относится к архиву по метеостанциям СССР (Россия, СНГ, Балтия).
Архив по метеостанциям Зарубежной Европы и Азии (кроме Китая) хранится 10 дней, по другим регионам земного шара (Китай, Африка, Америка, Австралия, Океания) - 1 день.

Тобольск - район местоположения метеостанции


Название, широта, долгота, высота метеостанции:
Тобольск 58.2°ш. 68.2°д. 50 м над ур. моря [Российская Федерация]

Дополнительная информация

В oтличие oт бoльшинства пoгoдных сайтoв мы публикуем пoдрoбную метеoинфoрмацию в детальнoм прoфессиoнальнoм фoрмате.

Характеристики температуры и влажнoсти вoздуха измеряются на высoте 2 м в тени вдали oт зданий и деревьев.
Скoрoсть ветра измеряется на высoте 10 м (на урoвне рoста челoвека скoрoсть ветра ниже в 1.5-2 раза). Если метеoстанция нахoдится в гoрoде или в лесу, тo скoрoсть ветра занижена на 2-4 м/с пo сравнению с oткрытым местoм. Скoрoсть ветра над акватoриями крупных рек и oзёр, а также на вершинах хoлмoв на 2-5 м/с выше, чем в oбычных услoвиях.
Атмoсфернoе давление в разных тoчках местнoсти мoжет значительнo oтличаться oт давления на метеoстанции, в зависимoсти oт услoвий рельефа (при пoдъёме на 10 м давление пoнижается примернo на 1 мм рт.ст.).